| time (UTC) | temp F | wind direction | speed MPH | gust MPH | rain 1hr in | rain 24hr in | rain mn in | humidity % | barometer mb |
| 20260506083817 | 73 | 176 | 0.0 | 0.0 | 0.00 | 0.00 | 0.00 | 42 | 1013.0 |
| 20260506082747 | 73 | 168 | 0.0 | 0.0 | 0.00 | 0.00 | 0.00 | 42 | 1013.0 |
| 20260506081717 | 73 | 205 | 0.0 | 0.0 | 0.00 | 0.00 | 0.00 | 43 | 1012.0 |
| 20260506080647 | 72 | 208 | 0.0 | 0.0 | 0.00 | 0.00 | 0.00 | 44 | 1013.0 |
| 20260506072517 | 71 | 227 | 0.0 | 0.0 | 0.00 | 0.00 | 0.00 | 46 | 1012.1 |
| 20260506071517 | 70 | 169 | 0.0 | 0.0 | 0.00 | 0.00 | 0.00 | 48 | 1013.0 |
| 20260506070517 | 69 | 205 | 0.0 | 0.0 | 0.00 | 0.00 | 0.00 | 48 | 1013.0 |
| 20260506062317 | 66 | 188 | 0.0 | 0.0 | 0.00 | 0.00 | 0.00 | 54 | 1012.0 |
| 20260506061247 | 65 | 176 | 0.0 | 0.0 | 0.00 | 0.00 | 0.00 | 55 | 1012.0 |
| 20260506060247 | 64 | 172 | 0.0 | 0.0 | 0.00 | 0.00 | 0.00 | 57 | 1013.0 |
| 20260506051047 | 59 | 160 | 0.0 | 0.0 | 0.00 | 0.00 | 0.00 | 72 | 1012.2 |
| 20260506045047 | 57 | 159 | 0.0 | 0.0 | 0.00 | 0.00 | 0.00 | 74 | 1012.0 |
| 20260506044047 | 56 | 177 | 0.0 | 0.0 | 0.00 | 0.00 | 0.00 | 74 | 1012.0 |
| 20260506043017 | 56 | 161 | 0.0 | 0.0 | 0.00 | 0.00 | 0.00 | 74 | 1012.0 |
| 20260506041947 | 55 | 158 | 0.0 | 0.0 | 0.00 | 0.00 | 0.00 | 74 | 1012.0 |
| 20260506040917 | 55 | 173 | 0.0 | 0.0 | 0.00 | 0.00 | 0.00 | 74 | 1012.0 |
| 20260506035846 | 55 | 168 | 0.0 | 0.0 | 0.00 | 0.00 | 0.00 | 74 | 1012.0 |
| 20260506034847 | 55 | 158 | 0.0 | 0.0 | 0.00 | 0.00 | 0.00 | 73 | 1012.0 |
| 20260506033816 | 55 | 170 | 0.0 | 0.0 | 0.00 | 0.00 | 0.00 | 72 | 1012.0 |
| 20260506032746 | 55 | 180 | 0.0 | 0.0 | 0.00 | 0.00 | 0.00 | 71 | 1012.0 |
| 20260506031717 | 55 | 180 | 0.0 | 0.0 | 0.00 | 0.00 | 0.00 | 71 | 1012.0 |
| 20260506030716 | 55 | 158 | 0.0 | 0.0 | 0.00 | 0.00 | 0.00 | 69 | 1012.0 |
| 20260506025716 | 55 | 159 | 0.0 | 0.0 | 0.00 | 0.00 | 0.00 | 69 | 1012.0 |
| 20260506024646 | 54 | 163 | 0.0 | 0.0 | 0.00 | 0.00 | 0.00 | 68 | 1012.0 |
| 20260506023646 | 54 | 158 | 0.0 | 0.0 | 0.00 | 0.00 | 0.00 | 65 | 1012.0 |
| 20260506022616 | 54 | 162 | 0.0 | 0.0 | 0.00 | 0.00 | 0.00 | 65 | 1012.0 |
| 20260506021546 | 54 | 176 | 0.0 | 0.0 | 0.00 | 0.00 | 0.00 | 65 | 1013.0 |
| 20260506020516 | 54 | 159 | 0.0 | 0.0 | 0.00 | 0.00 | 0.00 | 64 | 1013.0 |
| 20260506015516 | 55 | 158 | 0.0 | 0.0 | 0.00 | 0.00 | 0.00 | 63 | 1013.0 |
| 20260506014416 | 55 | 180 | 0.0 | 0.0 | 0.00 | 0.00 | 0.00 | 62 | 1012.0 |
| 20260506013346 | 55 | 209 | 0.0 | 0.0 | 0.00 | 0.00 | 0.00 | 61 | 1013.0 |
| 20260506012316 | 55 | 203 | 0.0 | 0.0 | 0.00 | 0.00 | 0.00 | 60 | 1012.0 |
| 20260506011316 | 56 | 176 | 0.0 | 0.0 | 0.00 | 0.00 | 0.00 | 60 | 1012.0 |
| 20260506010316 | 56 | 180 | 0.0 | 0.0 | 0.00 | 0.00 | 0.00 | 58 | 1012.0 |
| 20260506005316 | 57 | 180 | 0.0 | 0.0 | 0.00 | 0.00 | 0.00 | 57 | 1012.0 |
| 20260506004316 | 57 | 202 | 0.0 | 0.0 | 0.00 | 0.00 | 0.00 | 56 | 1012.0 |
| 20260506003316 | 58 | 202 | 0.0 | 0.0 | 0.00 | 0.00 | 0.00 | 55 | 1012.0 |
| 20260506002246 | 58 | 203 | 0.0 | 0.0 | 0.00 | 0.00 | 0.00 | 55 | 1012.0 |
| 20260506001216 | 59 | 203 | 0.0 | 0.0 | 0.00 | 0.00 | 0.00 | 54 | 1012.0 |
| 20260506000216 | 60 | 239 | 0.0 | 0.0 | 0.00 | 0.00 | 0.00 | 55 | 1012.0 |
| 20260505235146 | 60 | 237 | 0.0 | 0.0 | 0.00 | 0.00 | 0.00 | 56 | 1012.0 |
| 20260505234116 | 60 | 246 | 0.0 | 0.0 | 0.00 | 0.00 | 0.00 | 56 | 1012.0 |
| 20260505233116 | 60 | 234 | 0.0 | 0.0 | 0.00 | 0.00 | 0.00 | 55 | 1012.0 |
| 20260505232046 | 60 | 247 | 0.0 | 0.0 | 0.00 | 0.00 | 0.00 | 55 | 1012.0 |
| 20260505231046 | 60 | 248 | 0.0 | 0.0 | 0.00 | 0.00 | 0.00 | 56 | 1012.0 |
| 20260505230016 | 59 | 248 | 0.0 | 0.0 | 0.00 | 0.00 | 0.00 | 55 | 1012.0 |
| 20260505224946 | 58 | 181 | 0.0 | 0.0 | 0.00 | 0.00 | 0.00 | 49 | 1012.0 |
| 20260505223916 | 58 | 202 | 0.0 | 0.0 | 0.00 | 0.00 | 0.00 | 48 | 1012.0 |
| 20260505222846 | 59 | 202 | 0.0 | 0.0 | 0.00 | 0.00 | 0.00 | 47 | 1012.0 |
| 20260505221816 | 60 | 180 | 0.0 | 0.0 | 0.00 | 0.00 | 0.00 | 46 | 1012.0 |
| 20260505220746 | 61 | 202 | 0.0 | 0.0 | 0.00 | 0.00 | 0.00 | 45 | 1012.0 |
| 20260505215716 | 62 | 215 | 0.0 | 0.0 | 0.00 | 0.00 | 0.00 | 44 | 1012.0 |
| 20260505214716 | 63 | 205 | 0.0 | 0.0 | 0.00 | 0.00 | 0.00 | 44 | 1012.0 |
| 20260505213616 | 63 | 248 | 0.0 | 0.0 | 0.00 | 0.00 | 0.00 | 44 | 1012.0 |
| 20260505212546 | 64 | 252 | 0.0 | 0.0 | 0.00 | 0.00 | 0.00 | 44 | 1012.0 |
| 20260505211516 | 65 | 251 | 0.0 | 0.0 | 0.00 | 0.00 | 0.00 | 43 | 1012.0 |
| 20260505210516 | 65 | 259 | 0.0 | 0.0 | 0.00 | 0.00 | 0.00 | 43 | 1012.0 |
| 20260505205446 | 66 | 260 | 0.0 | 0.0 | 0.00 | 0.00 | 0.00 | 42 | 1012.0 |
| 20260505204346 | 66 | 298 | 0.0 | 0.0 | 0.00 | 0.00 | 0.00 | 39 | 1012.0 |
| 20260505203316 | 67 | 261 | 0.0 | 0.0 | 0.00 | 0.00 | 0.00 | 38 | 1012.0 |
| 20260505202246 | 67 | 274 | 0.0 | 0.0 | 0.00 | 0.00 | 0.00 | 36 | 1012.0 |
| 20260505201216 | 67 | 277 | 0.0 | 0.0 | 0.00 | 0.00 | 0.00 | 35 | 1012.0 |
| 20260505200216 | 67 | 252 | 0.0 | 0.0 | 0.00 | 0.00 | 0.00 | 34 | 1012.0 |
| 20260505195216 | 67 | 257 | 0.0 | 0.0 | 0.00 | 0.00 | 0.00 | 34 | 1011.0 |
| 20260505194145 | 67 | 255 | 0.0 | 0.0 | 0.00 | 0.00 | 0.00 | 34 | 1011.0 |
| 20260505193116 | 66 | 255 | 0.0 | 0.0 | 0.00 | 0.00 | 0.00 | 34 | 1011.0 |
| 20260505192115 | 66 | 248 | 0.0 | 0.0 | 0.00 | 0.00 | 0.00 | 34 | 1010.0 |
| 20260505191115 | 66 | 253 | 0.0 | 0.0 | 0.00 | 0.00 | 0.00 | 34 | 1010.0 |
| 20260505190045 | 66 | 248 | 0.0 | 0.0 | 0.00 | 0.00 | 0.00 | 34 | 1010.0 |
| 20260505185015 | 67 | 202 | 0.0 | 0.0 | 0.00 | 0.00 | 0.00 | 33 | 1009.0 |
| 20260505184015 | 68 | 202 | 0.0 | 0.0 | 0.00 | 0.00 | 0.00 | 32 | 1009.1 |
| 20260505182945 | 69 | 191 | 0.0 | 0.0 | 0.00 | 0.00 | 0.00 | 31 | 1010.0 |
| 20260505181945 | 71 | 158 | 0.0 | 0.0 | 0.00 | 0.00 | 0.00 | 29 | 1011.0 |
| 20260505180945 | 72 | 180 | 0.0 | 0.0 | 0.00 | 0.00 | 0.00 | 27 | 1010.0 |
| 20260505175915 | 74 | 206 | 0.0 | 0.0 | 0.00 | 0.00 | 0.00 | 25 | 1010.0 |
| 20260505174845 | 75 | 240 | 0.0 | 0.0 | 0.00 | 0.00 | 0.00 | 25 | 1010.0 |
| 20260505173845 | 76 | 243 | 0.0 | 0.0 | 0.00 | 0.00 | 0.00 | 24 | 1010.0 |
| 20260505172815 | 76 | 251 | 0.0 | 0.0 | 0.00 | 0.00 | 0.00 | 24 | 1010.0 |
| 20260505171815 | 77 | 214 | 0.0 | 0.0 | 0.00 | 0.00 | 0.00 | 23 | 1011.0 |
| 20260505170815 | 78 | 225 | 0.0 | 0.0 | 0.00 | 0.00 | 0.00 | 23 | 1010.0 |
| 20260505165815 | 78 | 237 | 0.0 | 0.0 | 0.00 | 0.00 | 0.00 | 22 | 1010.0 |
| 20260505164745 | 79 | 221 | 0.0 | 0.0 | 0.00 | 0.00 | 0.00 | 22 | 1010.0 |
| 20260505163645 | 80 | 246 | 0.0 | 0.0 | 0.00 | 0.00 | 0.00 | 22 | 1010.0 |
| 20260505162615 | 80 | 227 | 0.0 | 0.0 | 0.00 | 0.00 | 0.00 | 22 | 1010.0 |
| 20260505161545 | 81 | 241 | 0.0 | 0.0 | 0.00 | 0.00 | 0.00 | 22 | 1010.0 |
| 20260505160545 | 82 | 233 | 0.0 | 0.0 | 0.00 | 0.00 | 0.00 | 22 | 1010.0 |
| 20260505152415 | 82 | 165 | 0.0 | 0.0 | 0.00 | 0.00 | 0.00 | 21 | 1011.0 |
| 20260505151345 | 81 | 241 | 0.0 | 0.0 | 0.00 | 0.00 | 0.00 | 22 | 1011.0 |
| 20260505150345 | 82 | 231 | 0.0 | 0.0 | 0.00 | 0.00 | 0.00 | 22 | 1011.0 |
| 20260505140315 | 85 | 239 | 0.0 | 0.0 | 0.00 | 0.00 | 0.00 | 20 | 1011.0 |
| 20260505125015 | 84 | 167 | 0.0 | 0.0 | 0.00 | 0.00 | 0.00 | 20 | 1012.0 |
| 20260505123945 | 85 | 157 | 0.0 | 0.0 | 0.00 | 0.00 | 0.00 | 20 | 1012.0 |
| 20260505122915 | 85 | 180 | 0.0 | 0.0 | 0.00 | 0.00 | 0.00 | 21 | 1012.0 |
| 20260505121915 | 85 | 153 | 0.0 | 0.0 | 0.00 | 0.00 | 0.00 | 21 | 1012.0 |
| 20260505120845 | 84 | 173 | 0.0 | 0.0 | 0.00 | 0.00 | 0.00 | 21 | 1013.0 |
| 20260505115815 | 84 | 158 | 0.0 | 0.0 | 0.00 | 0.00 | 0.00 | 21 | 1013.0 |
| 20260505114745 | 84 | 181 | 0.0 | 0.0 | 0.00 | 0.00 | 0.00 | 22 | 1012.0 |
| 20260505113715 | 84 | 155 | 0.0 | 0.0 | 0.00 | 0.00 | 0.00 | 22 | 1012.0 |
| 20260505112715 | 84 | 149 | 0.0 | 0.0 | 0.00 | 0.00 | 0.00 | 23 | 1012.0 |
| 20260505111715 | 84 | 195 | 0.0 | 0.0 | 0.00 | 0.00 | 0.00 | 22 | 1013.0 |
| 20260505110645 | 83 | 202 | 0.0 | 0.0 | 0.00 | 0.00 | 0.00 | 22 | 1013.0 |
| 20260505101444 | 82 | 162 | 0.0 | 0.0 | 0.00 | 0.00 | 0.00 | 25 | 1014.0 |
| 20260505100444 | 82 | 153 | 0.0 | 0.0 | 0.00 | 0.00 | 0.00 | 26 | 1013.0 |
| 20260505095444 | 81 | 158 | 0.0 | 0.0 | 0.00 | 0.00 | 0.00 | 26 | 1014.0 |
| 20260505094414 | 81 | 158 | 0.0 | 0.0 | 0.00 | 0.00 | 0.00 | 27 | 1014.0 |
| 20260505093414 | 80 | 160 | 0.0 | 0.0 | 0.00 | 0.00 | 0.00 | 27 | 1014.0 |
| 20260505092414 | 79 | 159 | 0.0 | 0.0 | 0.00 | 0.00 | 0.00 | 26 | 1014.0 |
| 20260505091344 | 79 | 165 | 0.0 | 0.0 | 0.00 | 0.00 | 0.00 | 29 | 1014.0 |
| 20260505090314 | 78 | 164 | 0.0 | 0.0 | 0.00 | 0.00 | 0.00 | 28 | 1014.0 |
| 20260505085244 | 78 | 205 | 0.0 | 0.0 | 0.00 | 0.00 | 0.00 | 28 | 1014.0 |